Warning: Javascript must be enabled to use all the features on this page!


Page Loading - Please Wait...

Click to hideNews Bulletins

Peak Streamflow for the Nation

USGS 07141300 ARKANSAS R AT GREAT BEND, KS

Barton County, Kansas
Hydrologic Unit Code 11030004
Latitude  38°21'11", Longitude  98°45'50" NAD27
Drainage area 34,356  square miles
Contributing drainage area 28,354  square miles
Gage datum 1,835.19 feet above NGVD29
Output formats
Table
Graph
Tab-separated file
peakfq (watstore) format
Reselect output format
Water
Year
Date Gage
Height
(feet)
Stream-
flow
(cfs)
1921 1921-06 11.70Bd 4,7207,Bd
1941 1941-06-29 8.30 4,720
1942 1942-05-01 10.34 20,200
1943 1943-09-06 8.28 5,2606
1944 1944-05-04 9.60 7,1206
1945 1944-10-06 4.26 7356
1946 1946-09-10 6.85 2,9906
1947 1947-06-06 8.912 5,9406
1948 1948-08-15 9.60 7,1206
1949 1949-06-13 10.14 7,8506
1950 1950-08-17 9.96 7,6306
1951 1951-05-25 11.06 13,9006
1952 1952-04-22 6.29 2,0306
1953 1953-08-05 8.23 4,6306
1954 1954-04-26 4.12 6226
1955 1955-05-23 7.67 5,1906
1956 1956-07-09 4.56 6426
1957 1957-07-01 8.34 6,9206
1958 1958-07-30 11.47 15,8006
1959 1959-07-03 4.38 1,0106
1960 1960-03-24 8.59 7,1806
1961 1961-08-16 5.85 2,5506
1962 1962-08-05 6.88 5,0106
1963 1963-07-16 3.52 7626
1964 1964-04-22 3.78 9366
1965 1965-06-23 13.102 27,8006
1966 1965-10-22 4.232 2,1406
1967 1967-07-01 5.75 3,4006
1968 1968-06-22 3.83 1,0606
1969 1968-10-19 5.81 3,8706
1970 1970-06-16 6.27 4,9206
1971 1971-08-01 5.96 3,9706
1972 1971-11-20 8.09 7,8706
1973 1973-04-03 10.62 16,5006
1974 1973-10-14 6.77 5,7406
1975 1975-06-27 3.34 1,3706
1976 1976-09-24 9.16 2,7406
1977 1977-08-15 7.51 7156
1978 1978-05-04 8.32 1,6606
1979 1979-07-29 12.81 4,9106
1980 1980-04-01 9.81 2,2706
1981 1981-06-15 16.562 14,0006
1982 1982-07-18 7.63 1,2106
1983 1983-06-15 7.35 1,1106
1984 1984-05-02 4.68 1276
1985 1985-06-04 4.23 18.06
1986 1986-07-02 10.10 2,4006
1987 1987-07-10 13.20 5,7406
1988 1988-03-02 3.99 1366
1989 1989-06-11 6.84 1,1106
1990 1990-06-03 6.48 1,0306
1991 1990-10-17 2.72 9.606
1992 1992-07-28 6.51 1,0606
1993 1993-07-21 13.21 5,7106
1994 1993-12-22 3.82 1446
1995 1995-05-26 9.61 2,8606
1996 1996-09-22 8.75 3,0406
1997 1996-11-18 11.00 5,9306
1998 1998-01-11 5.29  
1999 1999-06-19 6.01 2,2006
2000 2000-05-03 5.17 1,3706
2001 2001-06-10 7.06 2,7706
2002 2001-10-01 1.91 88.06
2003 2002-10-05 2.48 2186
2004 2004-07-05 5.52 1,1806
2005 2005-04-06 2.51 3.002,6
2006 2006-08-22 7.76 2,6206
2007 2007-05-06 9.49 5,3206
2008 2008-05-29 6.64 1,9806
2009 2009-06-18 6.89 2,1606
2010 2010-06-15 8.97 3,9506
2011 2011-05-27 3.71 4732,6
2012 2011-12-04 1.47 12.02,6
2013 2013-08-04 3.65 3412,6
2014 2014-07-01 4.63 6702,6
2015 2015-05-29 6.58 1,5406
2016 2016-07-04 11.18 6,0606
2017 2017-05-02 10.11 4,9806
2018 2018-08-02   9056
2019 2019-05-28   10,1006
2020 2020-07-28   1,5006
2021 2021-05-21 6.172 1,5306
?
  Peak Gage-Height Qualification Codes.
?
  Peak Streamflow Qualification Codes.